00001 3.34 0.12 K0141 103.63769 73.97945 80.48977 10.58385 0.0787439 0.21410753 2.7672480 MPC 24219 4676 62 1839-1994 0.54 M-v 30 Bowell 0000 (1) Ceres 00002 4.13 0.11 K0141 90.12365 310.33679 173.19179 34.84039 0.2298490 0.21340085 2.7733539 MPC 24084 5482 63 1839-1993 0.55 M-c 28 Bowell 0000 (2) Pallas 00004 3.20 0.32 K0141 104.89803 149.45850 103.95099 7.13464 0.0897529 0.27172034 2.3607751 MPC 24219 5168 56 1841-1993 0.56 M-c 18 Bowell 0000 (4) Vesta 00005 6.85 0.15 K0141 148.34301 357.67508 141.69143 5.36843 0.1926067 0.23869525 2.5737925 MPC 24219 702 51 1851-1993 0.66 M-c 08 Bowell 0000 (5) Astraea 00006 5.71 0.24 K0141 165.02402 238.94026 138.85907 14.76701 0.2017921 0.26101473 2.4248937 MPC 24219 3581 59 1869-1994 0.53 M-c 08 Bowell 0000 (6) Hebe 00007 5.51 0.15 K0141 175.14930 145.17091 259.86604 5.52422 0.2301193 0.26738626 2.3862173 MPC 24084 3313 57 1850-1993 0.57 M-c 08 Bowell 0000 (7) Iris 00010 5.43 0.15 K0141 60.14205 314.18384 283.65501 3.84369 0.1192984 0.17736255 3.1373389 0 MPC 35055 2261 104 1849-1999 0.53 M-v 38h Goffin 0000 (10) Hygiea 00011 6.55 0.15 K0141 26.84105 194.36596 125.65569 4.62232 0.0988044 0.25667250 2.4521657 MPC 24085 2613 61 1850-1993 0.57 M-c 08 Bowell 0000 (11) Parthenope 00013 6.74 0.15 K0141 54.36180 80.83806 43.32539 16.54085 0.0845536 0.23838686 2.5760118 0 MPO 2601 946 54 1850-2000 0.77 M-v 38h Williams 0000 (13) Egeria 00014 6.30 0.15 K0141 41.91026 96.51674 86.50665 9.10679 0.1675871 0.23702504 2.5858692 0 MPO 595 1765 84 1851-2000 0.54 M-v 38h Goffin 0000 (14) Irene 00015 5.28 0.23 K0141 211.46411 97.06506 293.49608 11.74670 0.1858186 0.22914840 2.6447918 MPC 24219 775 50 1869-1993 0.60 M-c 08 Bowell 0000 (15) Eunomia 00018 6.51 0.25 K0141 197.33621 227.70040 150.57316 10.12678 0.2177169 0.28333392 2.2958156 MPC 24085 2877 51 1870-1993 0.52 M-c 08 Bowell 0000 (18) Melpomene 00019 7.13 0.10 K0141 292.53531 182.10060 211.49043 1.57207 0.1580577 0.25826075 2.4421019 MPC 24219 654 52 1869-1993 0.67 M-c 08 Bowell 0000 (19) Fortuna 00020 6.50 0.25 K0141 178.81778 255.65662 206.60514 0.70590 0.1426016 0.26351999 2.4095004 MPC 24085 732 55 1869-1993 0.62 M-c 08 Bowell 0000 (20) Massalia 00022 6.45 0.21 K0141 324.55126 357.39067 66.32564 13.72356 0.1017325 0.19875194 2.9080049 0 MPO 2601 1062 60 1854-1999 0.62 M-v 38h Williams 0000 (22) Kalliope 00023 6.95 0.15 K0141 248.78900 59.40375 67.26484 10.14986 0.2337758 0.23159959 2.6260976 0 MPO 4876 888 67 1852-2000 0.53 M-v 38h Goffin 0000 (23) Thalia 00024 7.08 0.19 K0141 260.30836 108.81385 36.07634 0.76131 0.1342460 0.17820300 3.1274668 MPC 22472 555 44 1908-1993 0.66 M-c 08 Bowell 0000 (24) Themis 00026 7.5 0.15 K0141 42.40116 193.62832 45.94981 3.56166 0.0883952 0.22770099 2.6559880 MPC 23111 163 40 1879-1993 0.79 M-c 08 Bowell 0000 (26) Proserpina 00029 5.85 0.20 K0141 132.42821 62.16197 356.56337 6.10197 0.0718839 0.24140374 2.5545048 MPC 23111 707 54 1868-1992 0.58 M-c 08 Bowell 0000 (29) Amphitrite 00036 8.46 0.15 K0141 312.09449 47.39155 358.51385 18.41849 0.3025287 0.21638751 2.7477756 0 MPC 35405 120 25 1871-1999 0.69 M-v 38h Bowell 0000 (36) Atalante 00037 7.29 0.24 K0141 266.69638 63.08261 7.45530 3.07235 0.1759409 0.22959342 2.6413731 0 MPC 31001 1399 97 1855-1996 0.55 M-v 38h Goffin 0000 (37) Fides 00039 6.1 0.15 K0141 329.95719 208.73405 157.22882 10.36981 0.1113384 0.21394414 2.7686568 0 MPC 30777 3843 90 1856-1996 0.52 M-v 38h Goffin 0000 (39) Laetitia 00040 7.0 0.15 K0141 2.55316 269.33337 94.31983 4.25640 0.0459732 0.28877821 2.2668691 0 MPC 31001 3339 81 1856-1996 0.52 M-v 38h Goffin 0000 (40) Harmonia 00042 7.53 0.15 K0141 300.10236 235.93275 84.56966 8.53855 0.2238744 0.25838426 2.4413236 MPC 22796 374 39 1917-1992 0.53 M-c 08 Bowell 0000 (42) Isis 00043 7.93 0.11 K0141 309.37667 15.77616 265.02758 3.46995 0.1687737 0.30140516 2.2031070 0 MPC 25032 882 78 1857-1994 1.01 M-c 08 Goffin 0000 (43) Ariadne 00044 7.03 0.46 K0141 159.36159 342.64805 131.61306 3.70246 0.1482936 0.26115834 2.4240046 0 MPO 3854 1410 81 1857-2000 0.52 M-v 38h Goffin 0000 (44) Nysa 00045 7.46 0.07 K0141 30.73402 86.25077 147.96437 6.61067 0.0831235 0.21960067 2.7209065 0 MPC 25033 460 47 1910-1994 0.63 M-c 08 Bowell 0000 (45) Eugenia 00048 6.90 0.15 K0141 316.03400 260.22751 183.95801 6.54783 0.0742184 0.17979989 3.1089216 0 MPC 35405 712 88 1857-1999 0.55 M-v 38h Goffin 0000 (48) Doris 00051 7.35 0.08 K0141 107.41503 3.20156 176.20462 9.96685 0.0669254 0.27086362 2.3657504 0 MPC 31001 3595 87 1858-1997 0.52 M-v 38h Goffin 0000 (51) Nemausa 00052 6.31 0.18 K0141 124.64527 342.58238 129.02942 7.46740 0.1012160 0.18055254 3.1002757 MPC 24371 1231 82 1858-1994 0.80 M-c 08 Goffin 0000 (52) Europa 00054 7.66 0.15 K0141 0.94225 344.94789 313.53336 11.82764 0.1991855 0.22093856 2.7099111 MPC 24085 144 35 1909-1992 0.85 M-c 08 Bowell 0000 (54) Alexandra 00060 8.21 0.27 K0141 252.04170 270.51838 191.85253 3.60119 0.1825581 0.26622387 2.3931581 0 MPC 27692 434 64 1860-1994 1.05 M-v 38d Goffin 0000 (60) Echo 00067 8.28 0.15 K0141 353.70452 105.46422 202.91650 6.01970 0.1852269 0.26163198 2.4210783 0 MPC 26379 412 63 1861-1994 1.00 M-v 38d Goffin 0000 (67) Asia 00068 6.78 0.05 K0141 300.52124 303.77604 44.44558 7.95567 0.1855343 0.21228132 2.7830961 MPC 24548 456 46 1879-1992 0.59 M-c 08 Bowell 0000 (68) Leto 00070 8.11 0.14 K0141 332.56993 255.28449 47.96587 11.57966 0.1833529 0.23304354 2.6152387 1 MPO 2601 276 43 1866-2000 0.80 M-v 38h Williams 0000 (70) Panopaea 00074 8.66 0.15 K0141 310.88722 173.88345 197.55925 4.05671 0.2359371 0.21252523 2.7809663 MPC 24716 206 34 1908-1994 0.67 M-c 08 Bowell 0000 (74) Galatea 00089 6.60 0.15 K0141 341.37502 44.77161 311.68927 16.13784 0.1813414 0.24193150 2.5507884 0 MPC 30777 722 59 1866-1995 0.54 M-v 38h Goffin 0000 (89) Julia 00097 7.63 0.15 K0141 259.13720 268.92653 159.79212 11.77744 0.2562989 0.22604874 2.6689145 0 MPO 2601 607 45 1870-2000 0.66 M-v 38h Williams 0000 (97) Klotho 00101 8.33 0.35 K0141 348.26610 346.71112 343.54694 10.19027 0.1406500 0.23745272 2.5827634 MPC 22796 117 25 1871-1991 0.84 M-c 08 Bowell 0000 (101) Helena 00103 7.66 0.15 K0141 330.95311 188.23179 136.31860 5.42300 0.0803801 0.22187296 2.7022973 0 MPO 8362 497 76 1868-2000 0.56 M-v 38h Goffin 0000 (103) Hera 00114 8.26 0.15 K0141 16.10937 352.92899 164.40930 4.93655 0.1359717 0.22506330 2.6766994 0 MPC 25186 175 35 1911-1994 0.68 M-v 38 Bowell 0000 (114) Kassandra 00116 7.82 0.15 K0141 251.17048 93.22568 64.08741 3.57273 0.1393029 0.21398143 2.7683351 0 MPO 595 460 61 1871-1999 0.56 M-v 38h Goffin 0000 (116) Sirona 00128 7.49 0.15 K0141 86.42924 302.97179 76.47252 6.25524 0.1281173 0.21623018 2.7491083 0 MPC 25186 353 64 1872-1994 1.01 M-v 38 Goffin 0000 (128) Nemesis 00129 7.07 0.33 K0141 43.85461 108.55053 136.47209 12.22504 0.2140466 0.20303257 2.8669860 0 MPO 2601 871 50 1915-2000 0.63 M-v 38h Williams 0000 (129) Antigone 00138 8.75 0.15 K0141 349.73759 259.09966 55.09403 3.20966 0.1625639 0.25726221 2.4484170 MPC 23654 211 59 1874-1992 1.01 M-c 08 Goffin 0000 (138) Tolosa 00144 7.91 0.17 K0141 305.06035 293.16651 76.68466 4.81075 0.2324626 0.22767610 2.6561815 MPC 22665 238 54 1875-1990 0.99 M-c 08 Goffin 0000 (144) Vibilia 00196 6.54 0.15 K0141 341.17107 206.42679 72.65859 7.25379 0.0248482 0.17932451 3.1144136 0 MPO 2601 742 58 1879-2000 0.65 M-v 38h Williams 0000 (196) Philomela 00234 9.02 0.15 K0141 320.44007 191.65641 144.68062 15.34198 0.2430854 0.26730780 2.3866842 0 MPC 35405 278 49 1883-1999 0.54 M-v 38h Goffin 0000 (234) Barbara 00247 8.04 0.15 K0141 299.24135 55.33744 0.27090 24.97646 0.2437041 0.21721711 2.7407749 1 MPC 27543 99 34 1885-1996 1.13 M-v 38h Williams 0000 (247) Eukrate 00270 8.75 0.15 K0141 326.34313 79.92929 254.67052 2.36692 0.1500201 0.30236068 2.1984631 MPC 22573 388 55 1887-1993 1.00 M-c 08 Goffin 0000 (270) Anahita 00346 7.13 0.15 K0141 89.81615 290.60372 92.17748 8.76153 0.1033789 0.21092111 2.7950485 MPC 22200 246 54 1892-1992 0.94 M-v 38 Goffin 0000 (346) Hermentaria 00349 5.93 0.37 K0141 284.55745 345.15413 32.64086 8.24374 0.0858670 0.19692218 2.9259909 0 MPC 31001 1414 72 1892-1996 0.53 M-v 38h Goffin 0000 (349) Dembowska 00354 6.44 0.37 K0141 23.96112 6.45729 140.52824 18.38355 0.1122885 0.21049377 2.7988302 0 MPC 31001 1700 75 1893-1997 0.55 M-v 38h Goffin 0000 (354) Eleonora 00409 7.62 0.29 K0141 5.88659 353.25734 242.44692 11.23963 0.0714180 0.23828585 2.5767397 MPC 24549 531 54 1895-1994 0.65 M-c 08 Bowell 0000 (409) Aspasia 00410 8.30 0.15 K0141 341.29724 172.23494 97.28379 10.92690 0.2378998 0.21872029 2.7282029 0 MPC 27290 264 50 1896-1995 0.77 M-v 38d Goffin 0000 (410) Chloris 00451 6.65 0.19 K0141 322.65236 342.90967 89.46471 15.23635 0.0759191 0.18415570 3.0597030 MPC 24220 465 53 1899-1993 0.65 M-c 08 Bowell 0000 (451) Patientia 00511 6.22 0.16 K0141 257.49358 339.00864 107.76509 15.94741 0.1835665 0.17477870 3.1681839 0 MPC 31002 1127 73 1903-1997 0.54 M-v 38h Goffin 0000 (511) Davida 00532 5.81 0.26 K0141 14.07056 76.85444 107.65802 16.30797 0.1773828 0.21359429 2.7716791 0 MPC 31002 2223 69 1904-1997 0.53 M-v 38h Goffin 0000 (532) Herculina 00563 8.50 0.15 K0141 309.13432 336.99269 85.49276 10.25253 0.2360434 0.22079005 2.7111261 MPC 24550 95 29 1907-1992 0.84 M-c 08 Bowell 0000 (563) Suleika 00704 5.94 -0.02 K0141 326.12022 94.70879 280.65511 17.32770 0.1459556 0.18392367 3.0622758 0 MPC 31002 2007 62 1910-1997 0.53 M-v 38h Goffin 0000 (704) Interamnia 00712 8.32 0.03 K0141 323.14941 181.56644 231.10758 12.78565 0.1878829 0.23868980 2.5738317 MPC 22574 150 35 1911-1992 0.96 M-c 08 Goffin 0000 (712) Boliviana